TimeAST,TemperatureF,Dew PointF,Humidity,Sea Level PressureIn,VisibilityMPH,Wind Direction,Wind SpeedMPH,Gust SpeedMPH,PrecipitationIn,Events,Conditions,WindDirDegrees,DateUTC
12:00 AM,-9999,-9999,N/A,30.01,-9999.0,ENE,11.5,-,N/A,,Unknown,60,2012-10-02 04:00:00
1:00 AM,-9999,-9999,N/A,29.98,-9999.0,ENE,11.5,-,N/A,,Unknown,60,2012-10-02 05:00:00
2:00 AM,,32,,,,ENE,12.7,,,,,60,2012-10-02 06:00:00
2:00 AM,-9999,-9999,N/A,29.98,-9999.0,ENE,12.7,-,N/A,,Unknown,60,2012-10-02 06:00:00
3:00 AM,-9999,-9999,N/A,29.95,-9999.0,ENE,11.5,-,N/A,,Unknown,60,2012-10-02 07:00:00
4:00 AM,-9999,-9999,N/A,29.95,-9999.0,NE,13.8,-,N/A,,Unknown,50,2012-10-02 08:00:00
5:00 AM,,32,,,,ENE,11.5,,,,,60,2012-10-02 09:00:00
5:00 AM,-9999,-9999,N/A,29.98,-9999.0,ENE,11.5,-,N/A,,Unknown,60,2012-10-02 09:00:00
6:00 AM,-9999,-9999,N/A,29.98,-9999.0,ENE,11.5,-,N/A,,Unknown,60,2012-10-02 10:00:00
7:00 AM,-9999,-9999,N/A,30.01,6.2,ENE,10.4,-,N/A,,Mostly Cloudy,60,2012-10-02 11:00:00
8:00 AM,-9999,-9999,N/A,30.04,6.2,ENE,12.7,-,N/A,,Mostly Cloudy,70,2012-10-02 12:00:00
9:00 AM,-9999,-9999,N/A,30.04,6.2,ENE,17.3,-,N/A,,Mostly Cloudy,60,2012-10-02 13:00:00
10:00 AM,-9999,-9999,N/A,30.04,6.2,ENE,16.1,-,N/A,,Mostly Cloudy,60,2012-10-02 14:00:00
11:00 AM,-9999,-9999,N/A,30.04,6.2,ENE,18.4,-,N/A,,Mostly Cloudy,60,2012-10-02 15:00:00
12:00 PM,-9999,-9999,N/A,30.04,6.2,NE,13.8,-,N/A,Rain,Light Rain,50,2012-10-02 16:00:00
1:00 PM,-9999,-9999,N/A,30.01,6.2,ENE,16.1,-,N/A,,Mostly Cloudy,60,2012-10-02 17:00:00
2:00 PM,,32,,,12,ENE,17.3,,,,Partly Cloudy,60,2012-10-02 18:00:00
2:00 PM,-9999,-9999,N/A,29.98,6.2,ENE,17.3,-,N/A,,Scattered Clouds,60,2012-10-02 18:00:00
3:00 PM,-9999,-9999,N/A,29.98,-9999.0,ENE,16.1,-,N/A,,Unknown,60,2012-10-02 19:00:00
4:00 PM,-9999,-9999,N/A,29.98,6.2,ENE,15.0,-,N/A,,Mostly Cloudy,60,2012-10-02 20:00:00
5:00 PM,,,,,12,ENE,15.0,,,,Scattered Clouds,60,2012-10-02 21:00:00
5:00 PM,-9999,-9999,N/A,29.98,6.2,NE,15.0,-,N/A,,Partly Cloudy,50,2012-10-02 21:00:00
6:00 PM,-9999,-9999,N/A,30.01,-9999.0,ENE,12.7,-,N/A,,Unknown,60,2012-10-02 22:00:00
7:00 PM,-9999,-9999,N/A,30.01,-9999.0,ENE,10.4,-,N/A,,Unknown,60,2012-10-02 23:00:00
8:00 PM,,,,,11,ENE,13.8,,,,Clear,70,2012-10-03 00:00:00
8:00 PM,-9999,-9999,N/A,30.04,-9999.0,ENE,12.7,-,N/A,,Unknown,60,2012-10-03 00:00:00
9:00 PM,-9999,-9999,N/A,30.04,-9999.0,NE,13.8,-,N/A,,Unknown,50,2012-10-03 01:00:00
10:00 PM,-9999,-9999,N/A,30.04,-9999.0,ENE,13.8,-,N/A,,Unknown,60,2012-10-03 02:00:00
11:00 PM,-9999,-9999,N/A,30.04,-9999.0,ENE,13.8,-,N/A,,Unknown,60,2012-10-03 03:00:00